Regional Weather Roundup
Issued by NWS

Home | Current Version | Previous Version | Graphics & Text | Print | Product List | Glossary On
Versions: 1 2 3 4 5 6 7 8 9 10 11 12 13 14 15 16 17 18 19 20 21 22 23 24 25 26 27 28 29 30 31 32 33 34 35 36 37 38 39 40 41 42 43 44 45 46 47 48 49 50
000
ASUS43 KBIS 191910
RWRND

NORTH DAKOTA REGIONAL WEATHER ROUNDUP
NATIONAL WEATHER SERVICE BISMARCK ND
200 PM CDT SUN APR 19 2015

NOTE: "FAIR" INDICATES FEW OR NO CLOUDS BELOW 12,000 FEET WITH NO
SIGNIFICANT WEATHER AND/OR OBSTRUCTIONS TO VISIBILITY.


NDZ001>003-009>011-017-192000-
NORTHWEST NORTH DAKOTA

CITY           SKY/WX    TMP DP  RH WIND       PRES   REMARKS
WILLISTON      CLOUDY    47  26  44 NW24G33   30.02F
MINOT          CLOUDY    45  36  70 NW23G35   29.88F
MINOT AFB      CLOUDY    45  39  80 NW29G35   29.87S
$$

NDZ018>021-031>035-040>046-192000-
SOUTHWEST NORTH DAKOTA

CITY           SKY/WX    TMP DP  RH WIND       PRES   REMARKS
BISMARCK       MOSUNNY   47  41  80 NW22G31   29.88F
DICKINSON      PTSUNNY   42  31  64 NW28G37   29.96S
GARRISON         N/A     46  36  68 NW29G41   29.89S
HETTINGER ARPT CLOUDY    44  28  53 NW26G39   29.98F
$$

NDZ004>008-012>016-024-026-027-054-192000-
NORTHEAST NORTH DAKOTA

CITY           SKY/WX    TMP DP  RH WIND       PRES   REMARKS
GRAND FORKS    LGT RAIN  44  40  85 N24G32    29.70R
GRND FRKS AFB  LGT RAIN  42  39  87 NW25G32   29.72R
DEVILS LAKE    CLOUDY    43  37  81 NW17      29.77F
$$

NDZ022-023-025-028>030-036>039-047>053-192000-
SOUTHEAST NORTH DAKOTA

CITY           SKY/WX    TMP DP  RH WIND       PRES   REMARKS
FARGO          LGT RAIN  47  40  76 NW18G33   29.71S
JAMESTOWN      CLOUDY    50  36  58 N36G46    29.76S
$$




USA.gov is the U.S. government's official web portal to all federal, state and local government web resources and services.